Year,Month,Day,Hour,Minute,Value (Times are PST for barometer in hPa)
2022,10,15,00,00,1047.41
2022,10,15,00,01,1047.41
2022,10,15,00,02,1047.41
2022,10,15,00,03,1047.41
2022,10,15,00,04,1047.41
2022,10,15,00,05,1047.41
2022,10,15,00,06,1047.41
2022,10,15,00,07,1047.41
2022,10,15,00,08,1047.41
2022,10,15,00,09,1047.41
2022,10,15,00,10,1047.41
2022,10,15,00,11,1047.41
2022,10,15,00,12,1047.41
2022,10,15,00,13,1047.41
2022,10,15,00,14,1047.41
2022,10,15,00,15,1047.41
2022,10,15,00,16,1047.41
2022,10,15,00,17,1047.41
2022,10,15,00,18,1047.41
2022,10,15,00,19,1047.41
2022,10,15,00,20,1047.41
2022,10,15,00,21,1047.41
2022,10,15,00,22,1047.41
2022,10,15,00,23,1047.41
2022,10,15,00,24,1047.41
2022,10,15,00,25,1047.41
2022,10,15,00,26,1047.41
2022,10,15,00,27,1047.41
2022,10,15,00,28,1047.41
2022,10,15,00,29,1047.41
2022,10,15,00,30,1047.41
2022,10,15,00,31,1047.41
2022,10,15,11,00,980.70
2022,10,15,11,01,980.70
2022,10,15,11,02,980.70
2022,10,15,11,03,980.70
2022,10,15,11,04,980.70
2022,10,15,11,05,980.70
2022,10,15,11,06,980.70
2022,10,15,11,07,980.70
2022,10,15,11,08,980.70
2022,10,15,11,09,976.05
2022,10,15,11,10,965.19
2022,10,15,11,11,965.19
2022,10,15,11,12,965.19
2022,10,15,11,13,965.19
2022,10,15,11,14,965.19
2022,10,15,11,15,967.95
2022,10,15,11,16,976.23
2022,10,15,11,17,976.23
2022,10,15,11,18,976.23
2022,10,15,11,19,976.23
2022,10,15,11,20,976.23
2022,10,15,11,21,976.23
2022,10,15,11,22,978.92
2022,10,15,11,23,986.46
2022,10,15,11,24,986.46
2022,10,15,11,25,986.46
2022,10,15,11,26,986.46
2022,10,15,11,27,986.46
2022,10,15,11,28,986.46
2022,10,15,11,29,986.46
2022,10,15,11,30,986.46
2022,10,15,11,31,986.46
2022,10,15,11,32,986.46
2022,10,15,11,33,986.46
2022,10,15,11,34,986.46
2022,10,15,11,35,986.46
2022,10,15,11,36,982.72
2022,10,15,11,37,971.46
2022,10,15,11,38,971.37
2022,10,15,11,39,971.42
2022,10,15,11,40,971.10
2022,10,15,11,41,970.37
2022,10,15,11,42,970.37
2022,10,15,11,43,970.37
2022,10,15,11,44,970.37
2022,10,15,11,45,970.37
2022,10,15,11,46,970.37
2022,10,15,11,47,970.37
2022,10,15,11,48,965.14
2022,10,15,11,49,950.49
2022,10,15,11,50,950.49
2022,10,15,11,51,950.49
2022,10,15,11,52,950.49
2022,10,15,11,53,950.48
2022,10,15,11,54,950.46
2022,10,15,11,55,950.46
2022,10,15,11,56,950.46
2022,10,15,11,57,950.46
2022,10,15,11,58,950.46
2022,10,15,11,59,950.46
2022,10,15,12,00,950.46
2022,10,15,12,01,950.46
2022,10,15,12,02,950.46
2022,10,15,12,03,950.46
2022,10,15,12,04,950.46
2022,10,15,12,05,950.46
2022,10,15,12,06,949.10
2022,10,15,12,07,945.01
2022,10,15,12,08,945.01
2022,10,15,12,09,945.01
2022,10,15,12,10,945.01
2022,10,15,12,11,944.45
2022,10,15,12,12,942.74
2022,10,15,12,13,942.67
2022,10,15,12,14,942.77
2022,10,15,12,15,942.77
2022,10,15,12,16,942.77
2022,10,15,12,17,942.77
2022,10,15,12,18,942.77
2022,10,15,12,19,942.77
2022,10,15,12,20,942.77
2022,10,15,12,21,943.65
2022,10,15,12,22,946.16
2022,10,15,12,23,946.26
2022,10,15,12,24,946.26
2022,10,15,12,25,946.26
2022,10,15,12,26,946.26
2022,10,15,12,27,946.26
2022,10,15,12,28,945.11
2022,10,15,12,29,941.65
2022,10,15,12,30,941.65
2022,10,15,12,31,941.65
2022,10,15,12,32,941.65
2022,10,15,12,33,941.65
2022,10,15,12,34,941.65
2022,10,15,12,35,941.65
2022,10,15,12,36,941.65
2022,10,15,12,37,941.65
2022,10,15,12,38,941.65
2022,10,15,12,39,941.65
2022,10,15,12,40,941.65
2022,10,15,12,41,941.65
2022,10,15,12,42,941.65
2022,10,15,12,43,941.65
2022,10,15,12,44,941.65
2022,10,15,12,45,941.65
2022,10,15,12,46,941.65
2022,10,15,12,47,941.65
2022,10,15,12,48,941.65
2022,10,15,12,49,941.65
2022,10,15,12,50,941.65
2022,10,15,12,51,941.65
2022,10,15,12,52,941.65
2022,10,15,12,53,941.65
2022,10,15,12,54,941.65
2022,10,15,12,55,941.65
2022,10,15,12,56,941.65
2022,10,15,12,57,941.65
2022,10,15,12,58,941.65
2022,10,15,12,59,941.65
2022,10,15,13,00,941.65
2022,10,15,13,01,941.65
2022,10,15,13,02,941.65
2022,10,15,13,03,941.65
2022,10,15,13,04,941.65
2022,10,15,13,05,941.65
2022,10,15,13,06,941.65
2022,10,15,13,07,941.65
2022,10,15,13,08,941.65
2022,10,15,13,09,941.65
2022,10,15,13,10,941.65
2022,10,15,13,11,941.65
2022,10,15,13,12,941.65
2022,10,15,13,13,941.65
2022,10,15,13,14,941.65
2022,10,15,13,15,941.65
2022,10,15,13,16,941.65
2022,10,15,13,17,941.65
2022,10,15,13,18,941.65
2022,10,15,13,19,941.65
2022,10,15,13,20,941.65
2022,10,15,13,21,941.65
2022,10,15,13,22,941.65
2022,10,15,13,23,941.65
2022,10,15,13,24,941.65
2022,10,15,13,25,941.65
2022,10,15,13,26,941.65
2022,10,15,13,27,941.65
2022,10,15,13,28,941.66
2022,10,15,13,29,941.69
2022,10,15,13,30,941.68
2022,10,15,13,31,941.66
2022,10,15,13,32,941.69
2022,10,15,13,33,941.70
2022,10,15,13,34,941.73
2022,10,15,13,35,941.75
2022,10,15,13,36,941.72
2022,10,15,13,37,941.72
2022,10,15,13,38,941.73
2022,10,15,13,39,941.76
2022,10,15,13,40,941.76
2022,10,15,13,41,941.76
2022,10,15,13,42,941.76
2022,10,15,13,43,941.76
2022,10,15,13,44,941.76
2022,10,15,13,45,941.76
2022,10,15,13,46,941.76
2022,10,15,13,47,941.76
2022,10,15,13,48,941.76
2022,10,15,13,49,941.76
2022,10,15,13,50,941.76
2022,10,15,13,51,941.76
2022,10,15,13,52,941.76
2022,10,15,13,53,941.76
2022,10,15,13,54,941.76
2022,10,15,13,55,941.76
2022,10,15,13,56,941.76
2022,10,15,13,57,941.76
2022,10,15,13,58,941.76
2022,10,15,13,59,941.76
2022,10,15,14,00,941.76
2022,10,15,14,01,941.76
2022,10,15,14,02,941.76
2022,10,15,14,03,941.76
2022,10,15,14,04,941.76
2022,10,15,14,05,941.76
2022,10,15,14,06,941.76
2022,10,15,14,07,941.76
2022,10,15,14,08,941.76
2022,10,15,14,09,941.76
2022,10,15,14,10,941.76
2022,10,15,14,11,941.76
2022,10,15,14,12,941.76
2022,10,15,14,13,941.76
2022,10,15,14,14,941.76
2022,10,15,14,15,941.76
2022,10,15,14,16,941.76
2022,10,15,14,17,941.76
2022,10,15,14,18,941.76
2022,10,15,14,19,941.76
2022,10,15,14,20,941.76
2022,10,15,14,21,941.76
2022,10,15,14,22,941.76
2022,10,15,14,23,941.76
2022,10,15,14,24,941.76
2022,10,15,14,25,941.76
2022,10,15,14,26,941.76
2022,10,15,14,27,941.76
2022,10,15,14,28,941.76
2022,10,15,14,29,941.76
2022,10,15,14,30,941.76
2022,10,15,14,31,941.76
2022,10,15,14,32,941.76
2022,10,15,14,33,941.76
2022,10,15,14,34,941.76
2022,10,15,14,35,941.76
2022,10,15,14,36,941.76
2022,10,15,14,37,941.76
2022,10,15,14,38,941.76
2022,10,15,14,39,941.76
2022,10,15,14,40,941.76
2022,10,15,14,41,941.76
2022,10,15,14,42,941.76
2022,10,15,14,43,941.76
2022,10,15,14,44,941.76
2022,10,15,14,45,941.76
2022,10,15,14,46,941.76
2022,10,15,14,47,941.76
2022,10,15,14,48,941.76
2022,10,15,14,49,941.76
2022,10,15,14,50,941.76
2022,10,15,14,51,941.76
2022,10,15,14,52,941.76
2022,10,15,14,53,941.76
2022,10,15,14,54,941.76
2022,10,15,14,55,941.76
2022,10,15,14,56,941.75
2022,10,15,14,57,941.71
2022,10,15,14,58,941.68
2022,10,15,14,59,941.65
2022,10,15,15,00,941.65
2022,10,15,15,01,941.65
2022,10,15,15,02,941.65
2022,10,15,15,03,941.65
2022,10,15,15,04,941.65
2022,10,15,15,05,941.65
2022,10,15,15,06,941.65
2022,10,15,15,07,941.65
2022,10,15,15,08,941.65
2022,10,15,15,09,941.65
2022,10,15,15,10,941.65
2022,10,15,15,11,941.65
2022,10,15,15,12,941.65
2022,10,15,15,13,941.65
2022,10,15,15,14,941.65
2022,10,15,15,15,941.65
2022,10,15,15,16,941.65
2022,10,15,15,17,941.65
2022,10,15,15,18,941.65
2022,10,15,15,19,941.65
2022,10,15,15,20,941.65
2022,10,15,15,21,941.65
2022,10,15,15,22,941.65
2022,10,15,15,23,941.65
2022,10,15,15,24,941.65
2022,10,15,15,25,941.65
2022,10,15,15,26,941.65
2022,10,15,15,27,941.65
2022,10,15,15,28,941.65
2022,10,15,15,29,941.65
2022,10,15,15,30,941.65
2022,10,15,15,31,941.65
2022,10,15,15,32,941.65
2022,10,15,15,33,941.65
2022,10,15,15,34,941.65
2022,10,15,15,35,941.65
2022,10,15,15,36,941.95
2022,10,15,15,37,943.14
2022,10,15,15,38,943.14
2022,10,15,15,39,943.14
2022,10,15,15,40,943.14
2022,10,15,15,41,945.04
2022,10,15,15,42,952.19
2022,10,15,15,43,952.19
2022,10,15,15,44,952.19
2022,10,15,15,45,952.19
2022,10,15,15,46,952.19
2022,10,15,15,47,952.19
2022,10,15,15,48,950.30
2022,10,15,15,49,942.62
2022,10,15,15,50,942.16
2022,10,15,15,51,942.16
2022,10,15,15,52,941.90
2022,10,15,15,53,940.87
2022,10,15,15,54,940.87
2022,10,15,15,55,940.87
2022,10,15,15,56,940.87
2022,10,15,15,57,940.87
2022,10,15,15,58,943.27
2022,10,15,15,59,950.46
2022,10,15,16,00,950.46
2022,10,15,16,01,950.46
2022,10,15,16,02,950.46
2022,10,15,16,03,950.46
2022,10,15,16,04,950.46
2022,10,15,16,05,950.46
2022,10,15,16,06,950.46
2022,10,15,16,07,950.46
2022,10,15,16,08,950.46
2022,10,15,16,09,950.46
2022,10,15,16,10,950.46
2022,10,15,16,11,950.46
2022,10,15,16,12,950.47
2022,10,15,16,13,950.49
2022,10,15,16,14,950.48
2022,10,15,16,15,950.47
2022,10,15,16,16,950.49
2022,10,15,16,17,950.49
2022,10,15,16,18,950.49
2022,10,15,16,19,950.49
2022,10,15,16,20,950.49
2022,10,15,16,21,950.49
2022,10,15,16,22,950.49
2022,10,15,16,23,950.49
2022,10,15,16,24,950.49
2022,10,15,16,25,953.00
2022,10,15,16,26,963.06
2022,10,15,16,27,963.06
2022,10,15,16,28,963.06
2022,10,15,16,29,963.06
2022,10,15,16,30,964.33
2022,10,15,16,31,969.39
2022,10,15,16,32,969.39
2022,10,15,16,33,969.41
2022,10,15,16,34,969.60
2022,10,15,16,35,970.12
2022,10,15,16,36,970.47
2022,10,15,16,37,970.38
2022,10,15,16,38,969.99
2022,10,15,16,39,969.99
2022,10,15,16,40,970.25
2022,10,15,16,41,970.34
2022,10,15,16,42,969.93
2022,10,15,16,43,968.27
2022,10,15,16,44,968.27
2022,10,15,16,45,968.27
2022,10,15,16,46,967.34
2022,10,15,16,47,962.30
2022,10,15,16,48,962.07
2022,10,15,16,49,962.48
2022,10,15,16,50,962.48
2022,10,15,16,51,962.28
2022,10,15,16,52,961.55
2022,10,15,16,53,961.79
2022,10,15,16,54,961.86
2022,10,15,16,55,961.84
2022,10,15,16,56,961.84
2022,10,15,16,58,962.41
2022,10,15,16,59,962.41
2022,10,15,17,00,962.41
2022,10,15,17,01,962.38
2022,10,15,17,02,962.29
2022,10,15,17,03,962.29
2022,10,15,17,04,962.04
2022,10,15,17,05,962.27
2022,10,15,17,06,962.64
2022,10,15,17,07,962.71
2022,10,15,17,08,963.17
2022,10,15,17,09,962.95
2022,10,15,17,10,962.95
2022,10,15,17,11,962.95
2022,10,15,17,12,962.95
2022,10,15,17,13,962.95
2022,10,15,17,14,963.07
2022,10,15,17,15,963.59
2022,10,15,17,16,963.91
2022,10,15,17,17,963.94
2022,10,15,17,18,963.94
2022,10,15,17,19,963.90
2022,10,15,17,20,963.74
2022,10,15,17,21,963.92
2022,10,15,17,22,964.38
2022,10,15,17,23,964.38
2022,10,15,17,24,964.38
2022,10,15,17,25,964.38
2022,10,15,17,26,964.39
2022,10,15,17,27,964.47
2022,10,15,17,28,964.62
2022,10,15,17,29,964.73
2022,10,15,17,30,964.50
2022,10,15,17,31,964.46
2022,10,15,17,32,964.53
2022,10,15,17,33,964.43
2022,10,15,17,34,964.38
2022,10,15,17,35,964.24
2022,10,15,17,36,964.24
2022,10,15,17,37,964.35
2022,10,15,17,38,964.70
2022,10,15,17,39,964.65
2022,10,15,17,40,965.16
2022,10,15,17,41,965.16
2022,10,15,17,42,965.16
2022,10,15,17,43,965.21
2022,10,15,17,44,965.39
2022,10,15,17,45,965.39
2022,10,15,17,46,965.39
2022,10,15,17,47,965.47
2022,10,15,17,48,965.96
2022,10,15,17,49,966.03
2022,10,15,17,50,965.73
2022,10,15,17,51,965.73
2022,10,15,17,52,965.73
2022,10,15,17,53,965.73
2022,10,15,17,54,965.73
2022,10,15,17,55,965.73
2022,10,15,17,56,965.73
2022,10,15,17,57,965.95
2022,10,15,17,58,966.72
2022,10,15,17,59,966.36
2022,10,15,18,00,966.45
2022,10,15,18,01,966.34
2022,10,15,18,02,966.48
2022,10,15,18,03,966.48
2022,10,15,18,04,966.48
2022,10,15,18,05,966.54
2022,10,15,18,06,966.78
2022,10,15,18,07,966.78
2022,10,15,18,08,966.80
2022,10,15,18,09,966.89
2022,10,15,18,10,966.93
2022,10,15,18,11,966.82
2022,10,15,18,12,966.73
2022,10,15,18,13,966.77
2022,10,15,18,14,966.63
2022,10,15,18,15,966.71
2022,10,15,18,16,966.68
2022,10,15,18,17,966.68
2022,10,15,18,18,966.68
2022,10,15,18,19,966.68
2022,10,15,18,20,966.68
2022,10,15,18,21,966.68
2022,10,15,18,22,966.68
2022,10,15,18,23,966.68
2022,10,15,18,24,966.83
2022,10,15,18,25,967.66
2022,10,15,18,26,967.65
2022,10,15,18,27,967.53
2022,10,15,18,28,967.15
2022,10,15,18,29,967.40
2022,10,15,18,30,968.44
2022,10,15,18,31,968.52
2022,10,15,18,32,968.44
2022,10,15,18,33,968.44
2022,10,15,18,34,968.44
2022,10,15,18,35,968.44
2022,10,15,18,36,968.44
2022,10,15,18,37,968.44
2022,10,15,18,38,968.44
2022,10,15,18,39,968.44
2022,10,15,18,40,968.44
2022,10,15,18,41,968.44
2022,10,15,18,42,968.44
2022,10,15,18,43,968.44
2022,10,15,18,44,979.20
2022,10,15,18,45,1019.57
2022,10,15,18,46,1019.57
2022,10,15,18,47,1019.57
2022,10,15,18,48,1019.57
2022,10,15,18,49,1019.57
2022,10,15,18,50,1019.57
2022,10,15,18,51,1019.57
2022,10,15,18,52,1019.57
2022,10,15,18,53,1019.57
2022,10,15,18,54,1019.57
2022,10,15,18,55,1019.57
2022,10,15,18,56,1019.57
2022,10,15,18,57,1019.57
2022,10,15,18,58,1019.57
2022,10,15,18,59,1019.57
2022,10,15,19,00,1019.57
2022,10,15,19,01,1019.57
2022,10,15,19,02,1019.57
2022,10,15,19,03,1019.57
2022,10,15,19,04,1019.57
2022,10,15,19,05,1019.57
2022,10,15,19,06,1019.57
2022,10,15,19,07,1019.57
2022,10,15,19,08,1019.57
2022,10,15,19,09,1019.57
2022,10,15,19,10,1019.57
2022,10,15,19,11,1019.57
2022,10,15,19,12,1019.57
2022,10,15,19,13,1019.57
2022,10,15,19,14,1019.57
2022,10,15,19,15,1019.57
2022,10,15,19,16,1019.57
2022,10,15,19,17,1019.57
2022,10,15,19,18,1019.57
2022,10,15,19,19,1019.57
2022,10,15,19,20,1019.57
2022,10,15,19,21,1019.57
2022,10,15,19,22,1019.57
2022,10,15,19,23,1019.57
2022,10,15,19,24,1019.57
2022,10,15,19,25,1019.57
2022,10,15,19,26,1019.57
2022,10,15,19,27,1019.57
2022,10,15,19,28,1019.57
2022,10,15,19,29,1019.57
2022,10,15,19,30,1019.57
2022,10,15,19,31,1019.57
2022,10,15,19,32,1019.57
2022,10,15,19,33,1019.57
2022,10,15,19,34,1019.57
2022,10,15,19,35,1019.57
2022,10,15,19,36,1019.57
2022,10,15,19,37,1019.57
2022,10,15,19,38,1019.57
2022,10,15,19,39,1019.57
2022,10,15,19,40,1019.57
2022,10,15,19,41,1019.57
2022,10,15,19,42,1019.57
2022,10,15,19,43,1019.57
2022,10,15,19,44,1019.57
2022,10,15,19,45,1019.57
2022,10,15,19,46,1019.57
2022,10,15,19,47,1019.57
2022,10,15,19,48,1019.57
2022,10,15,19,49,1019.57
2022,10,15,19,50,1019.57
2022,10,15,19,51,1019.57
2022,10,15,19,52,1019.57
2022,10,15,19,53,1019.57
2022,10,15,19,54,1019.57
2022,10,15,19,55,1019.57
2022,10,15,19,56,1019.57
2022,10,15,19,57,1019.57
2022,10,15,19,58,1019.57
2022,10,15,19,59,1019.57
2022,10,15,20,00,1019.57
2022,10,15,20,01,1019.57
2022,10,15,20,02,1019.57
2022,10,15,20,03,1019.57
2022,10,15,20,04,1019.57
2022,10,15,20,05,1019.57
2022,10,15,20,06,1019.57
2022,10,15,20,07,1019.57
2022,10,15,20,08,1019.57
2022,10,15,20,09,1019.57
2022,10,15,20,10,1019.57
2022,10,15,20,11,1019.57
2022,10,15,20,12,1019.57
